Time,TemperatureF,DewpointF,PressureIn,WindDirection,WindDirectionDegrees,WindSpeedMPH,WindSpeedGustMPH,Humidity,HourlyPrecipIn,Conditions,Clouds,dailyrainin,SoftwareType,DateUTC
2013-02-03 00:00:00,29.5,28.2,30.15,SW,225,0.0,0.0,95,0.00,,---,0.00,VWS V14.00,2013-02-03 05:00:00,
2013-02-03 00:10:00,29.4,28.1,30.15,SW,225,0.0,0.0,95,0.00,,---,0.00,VWS V14.00,2013-02-03 05:10:00,
2013-02-03 00:20:00,29.3,28.0,30.14,SW,225,0.0,0.0,95,0.00,,---,0.00,VWS V14.00,2013-02-03 05:20:00,
2013-02-03 00:30:00,29.2,28.0,30.14,SW,225,0.0,0.0,95,0.00,,---,0.00,VWS V14.00,2013-02-03 05:30:00,
2013-02-03 00:40:00,29.0,27.8,30.14,SW,225,0.0,0.0,95,0.00,,---,0.00,VWS V14.00,2013-02-03 05:40:00,
2013-02-03 00:50:00,29.0,27.8,30.14,SW,225,0.0,0.0,95,0.00,,---,0.00,VWS V14.00,2013-02-03 05:50:00,
2013-02-03 01:00:00,28.8,27.5,30.14,SW,225,0.0,0.0,95,0.00,,---,0.00,VWS V14.00,2013-02-03 06:00:00,
2013-02-03 01:10:00,28.6,27.4,30.14,SW,225,0.0,0.0,95,0.00,,---,0.00,VWS V14.00,2013-02-03 06:10:00,
2013-02-03 01:20:00,28.4,27.1,30.14,SW,225,0.0,0.0,95,0.00,,---,0.00,VWS V14.00,2013-02-03 06:20:00,
2013-02-03 01:30:00,28.3,27.0,30.14,SW,225,0.0,0.0,95,0.00,,---,0.00,VWS V14.00,2013-02-03 06:30:00,
2013-02-03 01:40:00,28.3,27.0,30.14,SW,225,0.0,0.0,95,0.00,,---,0.00,VWS V14.00,2013-02-03 06:40:00,
2013-02-03 01:50:00,28.3,27.0,30.14,SW,225,0.0,0.0,95,0.00,,---,0.00,VWS V14.00,2013-02-03 06:50:00,
2013-02-03 02:00:00,28.5,27.2,30.13,SW,225,0.0,0.0,95,0.00,,---,0.00,VWS V14.00,2013-02-03 07:00:00,
2013-02-03 02:10:00,28.7,27.5,30.13,SW,225,0.0,0.0,95,0.00,,---,0.00,VWS V14.00,2013-02-03 07:10:00,
2013-02-03 02:20:00,28.8,27.5,30.13,SW,225,0.0,1.0,95,0.00,,---,0.00,VWS V14.00,2013-02-03 07:20:00,
2013-02-03 02:30:00,28.7,27.5,30.12,SW,225,0.0,0.0,95,0.00,,---,0.00,VWS V14.00,2013-02-03 07:30:00,
2013-02-03 02:40:00,28.4,27.1,30.13,SW,225,0.0,0.0,95,0.00,,---,0.00,VWS V14.00,2013-02-03 07:40:00,
2013-02-03 02:50:00,28.2,27.0,30.12,SW,225,0.0,0.0,95,0.00,,---,0.00,VWS V14.00,2013-02-03 07:50:00,
2013-02-03 03:00:00,27.9,26.7,30.12,SW,225,0.0,0.0,95,0.00,,---,0.00,VWS V14.00,2013-02-03 08:00:00,
2013-02-03 03:10:00,27.6,26.4,30.12,SW,225,0.0,0.0,95,0.00,,---,0.00,VWS V14.00,2013-02-03 08:10:00,
2013-02-03 03:20:00,27.4,26.2,30.12,SW,225,0.0,0.0,95,0.00,,---,0.00,VWS V14.00,2013-02-03 08:20:00,
2013-02-03 03:30:00,27.2,26.0,30.12,SW,225,0.0,0.0,95,0.00,,---,0.00,VWS V14.00,2013-02-03 08:30:00,
2013-02-03 03:40:00,27.0,25.8,30.12,SW,225,0.0,0.0,95,0.00,,---,0.00,VWS V14.00,2013-02-03 08:40:00,
2013-02-03 03:50:00,26.8,25.6,30.11,SW,225,0.0,0.0,95,0.00,,---,0.00,VWS V14.00,2013-02-03 08:50:00,
2013-02-03 04:00:00,26.6,25.4,30.11,SW,225,0.0,0.0,95,0.00,,---,0.00,VWS V14.00,2013-02-03 09:00:00,
2013-02-03 04:10:00,26.4,25.2,30.10,SW,225,0.0,0.0,95,0.00,,---,0.00,VWS V14.00,2013-02-03 09:10:00,
2013-02-03 04:20:00,26.2,25.0,30.10,SW,225,0.0,0.0,95,0.00,,---,0.00,VWS V14.00,2013-02-03 09:20:00,
2013-02-03 04:30:00,26.1,24.9,30.10,SW,225,0.0,0.0,95,0.00,,---,0.00,VWS V14.00,2013-02-03 09:30:00,
2013-02-03 04:40:00,25.9,24.7,30.10,SW,225,0.0,0.0,95,0.00,,---,0.00,VWS V14.00,2013-02-03 09:40:00,
2013-02-03 04:50:00,25.8,24.6,30.10,SW,225,0.0,0.0,95,0.00,,---,0.00,VWS V14.00,2013-02-03 09:50:00,
2013-02-03 05:00:00,25.7,24.5,30.09,SW,225,0.0,0.0,95,0.00,,---,0.00,VWS V14.00,2013-02-03 10:00:00,
2013-02-03 05:10:00,25.6,24.4,30.09,SW,225,0.0,0.0,95,0.00,,---,0.00,VWS V14.00,2013-02-03 10:10:00,
2013-02-03 05:20:00,25.4,24.2,30.09,SW,225,0.0,0.0,95,0.00,,---,0.00,VWS V14.00,2013-02-03 10:20:00,
2013-02-03 05:30:00,25.3,24.1,30.09,SW,225,0.0,0.0,95,0.00,,---,0.00,VWS V14.00,2013-02-03 10:30:00,
2013-02-03 05:40:00,25.2,24.0,30.08,SW,225,0.0,0.0,95,0.00,,---,0.00,VWS V14.00,2013-02-03 10:40:00,
2013-02-03 05:50:00,25.2,24.0,30.07,SW,225,0.0,1.0,95,0.00,,---,0.00,VWS V14.00,2013-02-03 10:50:00,
2013-02-03 06:00:00,25.6,24.4,30.07,SW,225,0.0,2.0,95,0.00,,---,0.00,VWS V14.00,2013-02-03 11:00:00,
2013-02-03 06:10:00,25.8,24.6,30.08,SW,225,0.0,1.0,95,0.00,,---,0.00,VWS V14.00,2013-02-03 11:10:00,
2013-02-03 06:20:00,25.9,24.7,30.08,SW,225,0.0,1.0,95,0.00,,---,0.00,VWS V14.00,2013-02-03 11:20:00,
2013-02-03 06:30:00,26.0,25.0,30.08,SW,225,0.0,1.0,96,0.00,,---,0.00,VWS V14.00,2013-02-03 11:30:00,
2013-02-03 06:40:00,26.4,25.4,30.08,SW,225,0.0,1.0,96,0.00,,---,0.00,VWS V14.00,2013-02-03 11:40:00,
2013-02-03 06:50:00,27.0,26.0,30.08,SW,225,0.0,1.0,96,0.00,,---,0.00,VWS V14.00,2013-02-03 11:50:00,
2013-02-03 07:00:00,27.5,26.5,30.07,SW,225,0.0,1.0,96,0.00,,---,0.00,VWS V14.00,2013-02-03 12:00:00,
2013-02-03 07:10:00,27.9,26.9,30.07,SW,225,0.0,0.0,96,0.00,,---,0.00,VWS V14.00,2013-02-03 12:10:00,
2013-02-03 07:20:00,28.4,27.4,30.07,SW,225,0.0,1.0,96,0.00,,---,0.00,VWS V14.00,2013-02-03 12:20:00,
2013-02-03 07:30:00,29.0,28.3,30.08,SSE,158,0.0,4.0,97,0.00,,---,0.00,VWS V14.00,2013-02-03 12:30:00,
2013-02-03 07:40:00,29.3,28.6,30.08,SSE,158,0.0,1.0,97,0.00,,---,0.00,VWS V14.00,2013-02-03 12:40:00,
2013-02-03 07:50:00,29.6,28.9,30.08,SSE,158,0.0,4.0,97,0.00,,---,0.00,VWS V14.00,2013-02-03 12:50:00,
2013-02-03 08:00:00,29.8,29.0,30.07,SE,135,0.0,4.0,97,0.00,,---,0.00,VWS V14.00,2013-02-03 13:00:00,
2013-02-03 08:10:00,30.1,29.4,30.08,SE,135,0.0,1.0,97,0.00,,---,0.00,VWS V14.00,2013-02-03 13:10:00,
2013-02-03 08:20:00,30.3,29.5,30.07,SSE,158,1.0,4.0,97,0.00,,---,0.00,VWS V14.00,2013-02-03 13:20:00,
2013-02-03 08:30:00,30.5,29.8,30.07,SSE,158,1.0,5.0,97,0.00,,---,0.00,VWS V14.00,2013-02-03 13:30:00,
2013-02-03 08:40:00,30.8,30.0,30.07,SSW,202,1.0,5.0,97,0.00,,---,0.00,VWS V14.00,2013-02-03 13:40:00,
2013-02-03 08:50:00,31.1,30.4,30.07,SSE,158,1.0,6.0,97,0.00,,---,0.00,VWS V14.00,2013-02-03 13:50:00,
2013-02-03 09:00:00,31.4,30.6,30.07,SSW,202,0.0,3.0,97,0.00,,---,0.00,VWS V14.00,2013-02-03 14:00:00,
2013-02-03 09:10:00,31.7,31.0,30.07,SSW,202,1.0,4.0,97,0.00,,---,0.00,VWS V14.00,2013-02-03 14:10:00,
2013-02-03 09:20:00,32.0,31.2,30.07,SSW,202,1.0,4.0,97,0.00,,---,0.00,VWS V14.00,2013-02-03 14:20:00,
2013-02-03 09:30:00,32.3,31.5,30.07,SW,225,1.0,4.0,97,0.00,,---,0.00,VWS V14.00,2013-02-03 14:30:00,
2013-02-03 09:40:00,32.8,32.0,30.07,South,180,1.0,5.0,97,0.00,,---,0.00,VWS V14.00,2013-02-03 14:40:00,
2013-02-03 09:50:00,33.2,32.4,30.07,South,180,1.0,5.0,97,0.00,,---,0.00,VWS V14.00,2013-02-03 14:50:00,
2013-02-03 10:00:00,33.9,33.4,30.07,SSE,158,1.0,5.0,98,0.00,,---,0.00,VWS V14.00,2013-02-03 15:00:00,
2013-02-03 10:10:00,34.6,34.1,30.07,South,180,1.0,5.0,98,0.00,,---,0.00,VWS V14.00,2013-02-03 15:10:00,
2013-02-03 10:20:00,35.3,34.8,30.06,South,180,2.0,6.0,98,0.00,,---,0.00,VWS V14.00,2013-02-03 15:20:00,
2013-02-03 10:30:00,36.4,35.9,30.07,SW,225,2.0,6.0,98,0.00,,---,0.01,VWS V14.00,2013-02-03 15:30:00,
2013-02-03 10:40:00,37.4,36.9,30.07,South,180,2.0,7.0,98,0.00,,---,0.01,VWS V14.00,2013-02-03 15:40:00,
2013-02-03 10:50:00,38.6,38.1,30.07,SSE,158,1.0,5.0,98,0.00,,---,0.01,VWS V14.00,2013-02-03 15:50:00,
2013-02-03 11:00:00,39.2,38.7,30.07,South,180,1.0,5.0,98,0.00,,---,0.01,VWS V14.00,2013-02-03 16:00:00,
2013-02-03 11:10:00,40.2,39.4,30.07,South,180,1.0,6.0,97,0.00,,---,0.01,VWS V14.00,2013-02-03 16:10:00,
2013-02-03 11:20:00,40.9,39.3,30.07,SSW,202,1.0,6.0,94,0.00,,---,0.01,VWS V14.00,2013-02-03 16:20:00,
2013-02-03 11:30:00,41.6,39.2,30.07,SSE,158,3.0,7.0,91,0.00,,---,0.02,VWS V14.00,2013-02-03 16:30:00,
2013-02-03 11:40:00,42.6,40.2,30.06,SSE,158,2.0,5.0,91,0.00,,---,0.02,VWS V14.00,2013-02-03 16:40:00,
2013-02-03 11:50:00,43.5,40.8,30.06,SE,135,1.0,5.0,90,0.00,,---,0.02,VWS V14.00,2013-02-03 16:50:00,
2013-02-03 12:00:00,45.4,39.9,30.06,WSW,248,2.0,9.0,81,0.00,,---,0.02,VWS V14.00,2013-02-03 17:00:00,
2013-02-03 12:10:00,47.0,37.0,30.05,WNW,292,2.0,10.0,68,0.00,,---,0.02,VWS V14.00,2013-02-03 17:10:00,
2013-02-03 12:20:00,48.4,36.8,30.05,SW,225,2.0,8.0,64,0.00,,---,0.03,VWS V14.00,2013-02-03 17:20:00,
2013-02-03 12:30:00,49.5,36.2,30.05,SSW,202,1.0,6.0,60,0.00,,---,0.03,VWS V14.00,2013-02-03 17:30:00,
2013-02-03 12:40:00,49.8,35.6,30.04,North,0,3.0,7.0,58,0.00,,---,0.03,VWS V14.00,2013-02-03 17:40:00,
2013-02-03 12:50:00,50.2,36.9,30.05,NNE,22,2.0,9.0,60,0.00,,---,0.03,VWS V14.00,2013-02-03 17:50:00,
2013-02-03 13:00:00,50.7,36.5,30.04,NW,315,2.0,7.0,58,0.00,,---,0.03,VWS V14.00,2013-02-03 18:00:00,
2013-02-03 13:10:00,51.4,33.9,30.04,West,270,2.0,7.0,51,0.00,,---,0.03,VWS V14.00,2013-02-03 18:10:00,
2013-02-03 13:20:00,51.5,33.0,30.03,WSW,248,3.0,9.0,49,0.00,,---,0.03,VWS V14.00,2013-02-03 18:20:00,
2013-02-03 13:30:00,51.9,33.9,30.03,WNW,292,1.0,6.0,50,0.00,,---,0.03,VWS V14.00,2013-02-03 18:30:00,
2013-02-03 13:40:00,52.3,33.7,30.03,West,270,1.0,5.0,49,0.00,,---,0.03,VWS V14.00,2013-02-03 18:40:00,
2013-02-03 13:50:00,52.4,31.7,30.03,NW,315,3.0,9.0,45,0.00,,---,0.03,VWS V14.00,2013-02-03 18:50:00,
2013-02-03 14:00:00,52.3,32.2,30.03,NNW,338,4.0,10.0,46,0.00,,---,0.03,VWS V14.00,2013-02-03 19:00:00,
2013-02-03 14:10:00,52.3,31.0,30.02,West,270,4.0,11.0,44,0.00,,---,0.03,VWS V14.00,2013-02-03 19:10:00,
2013-02-03 14:20:00,53.0,33.3,30.02,WSW,248,2.0,9.0,47,0.00,,---,0.03,VWS V14.00,2013-02-03 19:20:00,
2013-02-03 14:30:00,53.2,31.9,30.02,West,270,4.0,11.0,44,0.00,,---,0.03,VWS V14.00,2013-02-03 19:30:00,
2013-02-03 14:40:00,53.2,33.0,30.02,West,270,3.0,14.0,46,0.00,,---,0.03,VWS V14.00,2013-02-03 19:40:00,
2013-02-03 14:50:00,53.9,32.5,30.02,WSW,248,3.0,8.0,44,0.00,,---,0.03,VWS V14.00,2013-02-03 19:50:00,
2013-02-03 15:00:00,54.1,32.7,30.02,West,270,2.0,8.0,44,0.00,,---,0.03,VWS V14.00,2013-02-03 20:00:00,
2013-02-03 15:10:00,54.3,31.7,30.03,WNW,292,3.0,10.0,42,0.00,,---,0.03,VWS V14.00,2013-02-03 20:10:00,
2013-02-03 15:20:00,54.2,31.0,30.03,WSW,248,2.0,8.0,41,0.00,,---,0.03,VWS V14.00,2013-02-03 20:20:00,
2013-02-03 15:30:00,54.3,31.7,30.03,West,270,2.0,7.0,42,0.00,,---,0.03,VWS V14.00,2013-02-03 20:30:00,
2013-02-03 15:40:00,54.4,30.6,30.03,WSW,248,2.0,7.0,40,0.00,,---,0.03,VWS V14.00,2013-02-03 20:40:00,
2013-02-03 15:50:00,53.6,31.1,30.04,WNW,292,3.0,9.0,42,0.00,,---,0.03,VWS V14.00,2013-02-03 20:50:00,
2013-02-03 16:00:00,53.1,31.2,30.04,West,270,3.0,9.0,43,0.00,,---,0.03,VWS V14.00,2013-02-03 21:00:00,
2013-02-03 16:10:00,52.7,31.4,30.05,NNE,22,3.0,11.0,44,0.00,,---,0.03,VWS V14.00,2013-02-03 21:10:00,
2013-02-03 16:20:00,52.7,31.4,30.05,WNW,292,3.0,9.0,44,0.00,,---,0.03,VWS V14.00,2013-02-03 21:20:00,
2013-02-03 16:30:00,52.7,32.0,30.05,WSW,248,2.0,10.0,45,0.00,,---,0.03,VWS V14.00,2013-02-03 21:30:00,
2013-02-03 16:40:00,52.6,33.0,30.05,SW,225,1.0,6.0,47,0.00,,---,0.03,VWS V14.00,2013-02-03 21:40:00,
2013-02-03 16:50:00,52.4,30.6,30.05,West,270,2.0,7.0,43,0.00,,---,0.03,VWS V14.00,2013-02-03 21:50:00,
2013-02-03 17:00:00,52.2,31.5,30.05,West,270,1.0,7.0,45,0.00,,---,0.03,VWS V14.00,2013-02-03 22:00:00,
2013-02-03 17:10:00,51.6,31.5,30.05,West,270,1.0,5.0,46,0.00,,---,0.03,VWS V14.00,2013-02-03 22:10:00,
2013-02-03 17:20:00,51.1,31.6,30.05,West,270,2.0,6.0,47,0.00,,---,0.03,VWS V14.00,2013-02-03 22:20:00,
2013-02-03 17:30:00,50.5,31.6,30.05,West,270,1.0,5.0,48,0.00,,---,0.03,VWS V14.00,2013-02-03 22:30:00,
2013-02-03 17:40:00,49.9,31.0,30.05,West,270,0.0,6.0,48,0.00,,---,0.03,VWS V14.00,2013-02-03 22:40:00,
2013-02-03 17:50:00,49.2,31.9,30.06,West,270,0.0,4.0,51,0.00,,---,0.03,VWS V14.00,2013-02-03 22:50:00,
2013-02-03 18:00:00,48.2,31.4,30.06,North,0,0.0,4.0,52,0.00,,---,0.03,VWS V14.00,2013-02-03 23:00:00,
2013-02-03 18:10:00,47.4,31.6,30.07,NNW,338,0.0,4.0,54,0.00,,---,0.03,VWS V14.00,2013-02-03 23:10:00,
2013-02-03 18:20:00,46.6,30.9,30.07,NW,315,0.0,5.0,54,0.00,,---,0.03,VWS V14.00,2013-02-03 23:20:00,
2013-02-03 18:30:00,45.8,30.6,30.07,NW,315,0.0,1.0,55,0.00,,---,0.03,VWS V14.00,2013-02-03 23:30:00,
2013-02-03 18:40:00,45.1,29.9,30.08,North,0,0.0,5.0,55,0.00,,---,0.03,VWS V14.00,2013-02-03 23:40:00,
2013-02-03 18:50:00,44.9,29.7,30.08,North,0,0.0,3.0,55,0.00,,---,0.03,VWS V14.00,2013-02-03 23:50:00,
2013-02-03 19:00:00,44.6,29.9,30.09,NE,45,0.0,1.0,56,0.00,,---,0.03,VWS V14.00,2013-02-04 00:00:00,
2013-02-03 19:10:00,43.5,30.1,30.10,NE,45,0.0,1.0,59,0.00,,---,0.03,VWS V14.00,2013-02-04 00:10:00,
2013-02-03 19:20:00,42.3,30.2,30.10,NE,45,0.0,1.0,62,0.00,,---,0.03,VWS V14.00,2013-02-04 00:20:00,
2013-02-03 19:30:00,42.1,30.8,30.11,ENE,68,1.0,6.0,64,0.00,,---,0.03,VWS V14.00,2013-02-04 00:30:00,
2013-02-03 19:40:00,42.0,31.1,30.11,North,0,0.0,6.0,65,0.00,,---,0.03,VWS V14.00,2013-02-04 00:40:00,
2013-02-03 19:50:00,41.7,31.2,30.13,NE,45,1.0,5.0,66,0.00,,---,0.03,VWS V14.00,2013-02-04 00:50:00,
2013-02-03 20:00:00,41.2,31.1,30.13,North,0,1.0,6.0,67,0.00,,---,0.03,VWS V14.00,2013-02-04 01:00:00,
2013-02-03 20:10:00,40.6,30.9,30.13,NNE,22,0.0,2.0,68,0.00,,---,0.03,VWS V14.00,2013-02-04 01:10:00,
2013-02-03 20:20:00,40.0,30.7,30.13,NE,45,0.0,3.0,69,0.00,,---,0.03,VWS V14.00,2013-02-04 01:20:00,
2013-02-03 20:30:00,39.4,30.4,30.12,NW,315,1.0,4.0,70,0.00,,---,0.03,VWS V14.00,2013-02-04 01:30:00,
2013-02-03 20:40:00,38.8,30.2,30.13,NNW,338,0.0,2.0,71,0.00,,---,0.03,VWS V14.00,2013-02-04 01:40:00,
2013-02-03 20:50:00,38.4,30.2,30.14,North,0,0.0,4.0,72,0.00,,---,0.03,VWS V14.00,2013-02-04 01:50:00,
2013-02-03 21:00:00,37.8,29.9,30.14,North,0,0.0,1.0,73,0.00,,---,0.03,VWS V14.00,2013-02-04 02:00:00,
2013-02-03 21:10:00,37.0,29.5,30.14,North,0,0.0,0.0,74,0.00,,---,0.03,VWS V14.00,2013-02-04 02:10:00,
2013-02-03 21:20:00,36.2,29.4,30.14,North,0,0.0,1.0,76,0.00,,---,0.03,VWS V14.00,2013-02-04 02:20:00,
2013-02-03 21:30:00,35.8,29.3,30.14,North,0,0.0,1.0,77,0.00,,---,0.03,VWS V14.00,2013-02-04 02:30:00,
2013-02-03 21:40:00,35.7,29.2,30.14,NNW,338,0.0,5.0,77,0.00,,---,0.03,VWS V14.00,2013-02-04 02:40:00,
2013-02-03 21:50:00,35.8,29.0,30.15,WSW,248,0.0,6.0,76,0.00,,---,0.03,VWS V14.00,2013-02-04 02:50:00,
2013-02-03 22:00:00,35.7,28.9,30.15,WNW,292,0.0,1.0,76,0.00,,---,0.03,VWS V14.00,2013-02-04 03:00:00,
2013-02-03 22:10:00,35.4,28.9,30.14,NW,315,0.0,2.0,77,0.00,,---,0.03,VWS V14.00,2013-02-04 03:10:00,
2013-02-03 22:20:00,35.1,28.6,30.15,NNW,338,0.0,2.0,77,0.00,,---,0.03,VWS V14.00,2013-02-04 03:20:00,
2013-02-03 22:30:00,34.7,28.2,30.15,NNW,338,0.0,0.0,77,0.00,,---,0.03,VWS V14.00,2013-02-04 03:30:00,
2013-02-03 22:40:00,34.0,27.9,30.15,NNW,338,0.0,0.0,78,0.00,,---,0.03,VWS V14.00,2013-02-04 03:40:00,
2013-02-03 22:50:00,33.5,28.0,30.15,NNW,338,0.0,1.0,80,0.00,,---,0.03,VWS V14.00,2013-02-04 03:50:00,
2013-02-03 23:00:00,33.1,27.6,30.15,NNW,338,0.0,0.0,80,0.00,,---,0.03,VWS V14.00,2013-02-04 04:00:00,
2013-02-03 23:10:00,32.9,27.7,30.15,NNW,338,0.0,0.0,81,0.00,,---,0.03,VWS V14.00,2013-02-04 04:10:00,
2013-02-03 23:20:00,32.4,27.2,30.15,NNW,338,0.0,0.0,81,0.00,,---,0.03,VWS V14.00,2013-02-04 04:20:00,
2013-02-03 23:30:00,31.9,27.3,30.15,NNW,338,0.0,0.0,83,0.00,,---,0.03,VWS V14.00,2013-02-04 04:30:00,
2013-02-03 23:40:00,31.4,26.8,30.15,NNW,338,0.0,0.0,83,0.00,,---,0.03,VWS V14.00,2013-02-04 04:40:00,
2013-02-03 23:50:00,30.9,26.6,30.15,NNW,338,0.0,0.0,84,0.00,,---,0.03,VWS V14.00,2013-02-04 04:50:00,